When you browse on this site, cookies collect data to enhance your experience and personalize the content and advertising you see.
Visit our Privacy Policy to learn more. By continuing to use the site, you agree to this use of cookies and data.

Hourly Weather Sidi Bu-l-Abbas

Today, 5 July, Sunday

Time Temperature Precipitation Wind Pressure Humidity
00:00 +26°C° 0 mm 1 mps 723 mmHg 43%
01:00 +24°C° 0 mm 0 mps 722 mmHg 44%
02:00 +23°C° 0 mm 0 mps 722 mmHg 44%
03:00 +23°C° 0 mm 0 mps 722 mmHg 45%
04:00 +23°C° 0 mm 0 mps 722 mmHg 44%
05:00 +26°C° 0 mm 1 mps 722 mmHg 42%
06:00 +28°C° 0 mm 1 mps 723 mmHg 39%
07:00 +30°C° 0 mm 2 mps 723 mmHg 32%
08:00 +33°C° 0 mm 3 mps 723 mmHg 25%
09:00 +35°C° 0 mm 4 mps 723 mmHg 19%
10:00 +37°C° 0 mm 4 mps 723 mmHg 17%
11:00 +38°C° 0 mm 4 mps 723 mmHg 14%
12:00 +40°C° 0 mm 4 mps 724 mmHg 12%
13:00 +41°C° 0 mm 5 mps 723 mmHg 13%
14:00 +41°C° 0 mm 6 mps 722 mmHg 13%
15:00 +41°C° 0 mm 6 mps 722 mmHg 14%
16:00 +40°C° 0 mm 6 mps 722 mmHg 16%
17:00 +38°C° 0 mm 6 mps 721 mmHg 19%
18:00 +35°C° 0 mm 6 mps 721 mmHg 22%
19:00 +33°C° 0 mm 4 mps 721 mmHg 25%
20:00 +30°C° 0 mm 3 mps 721 mmHg 29%
21:00 +28°C° 0 mm 2 mps 721 mmHg 32%
22:00 +28°C° 0 mm 1 mps 721 mmHg 33%
23:00 +27°C° 0 mm 1 mps 721 mmHg 35%

Tomorrow, 6 July, Monday

Time Temperature Precipitation Wind Pressure Humidity
00:00 +24°C° 0 mm 0 mps 721 mmHg 36%
01:00 +24°C° 0 mm 0 mps 721 mmHg 39%
02:00 +25°C° 0 mm 1 mps 720 mmHg 41%
03:00 +24°C° 0 mm 1 mps 720 mmHg 44%
04:00 +25°C° 0 mm 1 mps 720 mmHg 45%
05:00 +25°C° 0 mm 1 mps 720 mmHg 46%
06:00 +23°C° 0 mm 0 mps 720 mmHg 46%
07:00 +28°C° 0 mm 1 mps 721 mmHg 39%
08:00 +30°C° 0 mm 1 mps 721 mmHg 31%
09:00 +32°C° 0 mm 2 mps 722 mmHg 24%
10:00 +34°C° 0 mm 3 mps 722 mmHg 21%
11:00 +36°C° 0 mm 3 mps 722 mmHg 19%
12:00 +37°C° 0 mm 4 mps 721 mmHg 17%
13:00 +37°C° 0 mm 5 mps 721 mmHg 16%
14:00 +39°C° 0 mm 5 mps 721 mmHg 16%
15:00 +39°C° 0 mm 6 mps 721 mmHg 15%
16:00 +38°C° 0 mm 6 mps 721 mmHg 17%
17:00 +36°C° 0 mm 5 mps 720 mmHg 19%
18:00 +35°C° 0 mm 5 mps 720 mmHg 20%
19:00 +33°C° 0 mm 3 mps 720 mmHg 25%
20:00 +30°C° 0 mm 2 mps 720 mmHg 30%
21:00 +25°C° 0 mm 0 mps 721 mmHg 35%
22:00 +27°C° 0 mm 1 mps 720 mmHg 37%
23:00 +26°C° 0 mm 1 mps 720 mmHg 40%

Day after tomorrow, 7 July, Tuesday

Time Temperature Precipitation Wind Pressure Humidity
00:00 +26°C° 0 mm 1 mps 720 mmHg 42%
01:00 +25°C° 0 mm 1 mps 720 mmHg 43%
02:00 +25°C° 0 mm 1 mps 720 mmHg 44%
03:00 +24°C° 0 mm 1 mps 720 mmHg 44%
04:00 +25°C° 0 mm 1 mps 720 mmHg 45%
05:00 +25°C° 0 mm 1 mps 720 mmHg 46%
06:00 +24°C° 0 mm 0 mps 720 mmHg 47%
07:00 +26°C° 0 mm 0 mps 721 mmHg 40%
08:00 +30°C° 0 mm 1 mps 721 mmHg 32%
09:00 +32°C° 0 mm 1 mps 721 mmHg 25%
10:00 +35°C° 0 mm 2 mps 721 mmHg 22%
11:00 +37°C° 0 mm 2 mps 721 mmHg 19%
12:00 +38°C° 0 mm 3 mps 721 mmHg 16%
13:00 +40°C° 0 mm 4 mps 721 mmHg 16%
14:00 +40°C° 0 mm 5 mps 721 mmHg 17%
15:00 +40°C° 0 mm 6 mps 721 mmHg 17%
16:00 +40°C° 0 mm 5 mps 721 mmHg 18%
17:00 +38°C° 0 mm 4 mps 720 mmHg 19%
18:00 +37°C° 0 mm 3 mps 720 mmHg 20%
19:00 +35°C° 0 mm 2 mps 720 mmHg 25%
20:00 +31°C° 0 mm 1 mps 721 mmHg 31%
21:00 +27°C° 0 mm 0 mps 721 mmHg 36%
22:00 +28°C° 0 mm 1 mps 721 mmHg 36%
23:00 +28°C° 0 mm 1 mps 721 mmHg 37%

8 July, Wednesday

Time Temperature Precipitation Wind Pressure Humidity
00:00 +28°C° 0 mm 1 mps 720 mmHg 37%
01:00 +27°C° 0 mm 1 mps 720 mmHg 38%
02:00 +24°C° 0 mm 0 mps 720 mmHg 39%
03:00 +24°C° 0 mm 0 mps 719 mmHg 40%
04:00 +24°C° 0 mm 0 mps 720 mmHg 39%
05:00 +25°C° 0 mm 0 mps 720 mmHg 38%
06:00 +28°C° 0 mm 1 mps 720 mmHg 37%
07:00 +30°C° 0 mm 1 mps 721 mmHg 32%
08:00 +32°C° 0 mm 1 mps 721 mmHg 27%
09:00 +36°C° 0 mm 2 mps 721 mmHg 21%
10:00 +37°C° 0 mm 2 mps 721 mmHg 19%
11:00 +39°C° 0 mm 2 mps 722 mmHg 16%
12:00 +40°C° 0 mm 2 mps 722 mmHg 14%
13:00 +42°C° 0 mm 4 mps 721 mmHg 14%
14:00 +42°C° 0 mm 5 mps 721 mmHg 14%
15:00 +42°C° 0 mm 6 mps 721 mmHg 14%
16:00 +41°C° 0 mm 6 mps 720 mmHg 17%
17:00 +39°C° 0 mm 5 mps 720 mmHg 20%
18:00 +37°C° 0 mm 5 mps 720 mmHg 23%
19:00 +35°C° 0 mm 4 mps 720 mmHg 27%
20:00 +33°C° 0 mm 3 mps 720 mmHg 31%
21:00 +29°C° 0 mm 2 mps 720 mmHg 35%
22:00 +29°C° 0 mm 2 mps 720 mmHg 35%
23:00 +29°C° 0 mm 2 mps 720 mmHg 35%

9 July, Thursday

Time Temperature Precipitation Wind Pressure Humidity
00:00 +29°C° 0 mm 3 mps 719 mmHg 35%
01:00 +29°C° 0 mm 3 mps 719 mmHg 34%
02:00 +29°C° 0 mm 3 mps 719 mmHg 33%
03:00 +28°C° 0 mm 3 mps 718 mmHg 32%
04:00 +28°C° 0 mm 3 mps 719 mmHg 35%
05:00 +28°C° 0 mm 2 mps 719 mmHg 37%
06:00 +28°C° 0 mm 2 mps 719 mmHg 40%
07:00 +30°C° 0 mm 2 mps 719 mmHg 36%
08:00 +32°C° 0 mm 2 mps 720 mmHg 31%
09:00 +35°C° 0 mm 2 mps 720 mmHg 27%
10:00 +37°C° 0 mm 3 mps 720 mmHg 26%
11:00 +38°C° 0 mm 4 mps 720 mmHg 25%
12:00 +40°C° 0 mm 5 mps 720 mmHg 24%
13:00 +39°C° 0 mm 5 mps 719 mmHg 27%
14:00 +37°C° 0 mm 5 mps 719 mmHg 30%
15:00 +36°C° 0 mm 6 mps 719 mmHg 33%
16:00 +35°C° 0 mm 5 mps 718 mmHg 37%
17:00 +33°C° 0 mm 4 mps 718 mmHg 41%
18:00 +32°C° 0 mm 4 mps 718 mmHg 45%
19:00 +30°C° 0 mm 3 mps 718 mmHg 52%
20:00 +28°C° 0 mm 3 mps 718 mmHg 58%
21:00 +27°C° 0 mm 3 mps 718 mmHg 64%
22:00 +26°C° 0 mm 3 mps 718 mmHg 67%
23:00 +26°C° 0 mm 4 mps 718 mmHg 69%

10 July, Friday

Time Temperature Precipitation Wind Pressure Humidity
00:00 +25°C° 0 mm 4 mps 718 mmHg 72%
01:00 +25°C° 0 mm 5 mps 718 mmHg 76%
02:00 +23°C° 0 mm 5 mps 718 mmHg 80%
03:00 +22°C° 0 mm 6 mps 717 mmHg 84%
04:00 +23°C° 0 mm 5 mps 718 mmHg 82%
05:00 +24°C° 0 mm 3 mps 718 mmHg 79%
06:00 +24°C° 0 mm 2 mps 718 mmHg 77%
07:00 +26°C° 0 mm 2 mps 718 mmHg 67%
08:00 +28°C° 0 mm 2 mps 719 mmHg 58%
09:00 +29°C° 0 mm 1 mps 719 mmHg 48%
10:00 +31°C° 0 mm 3 mps 719 mmHg 44%
11:00 +34°C° 0 mm 4 mps 719 mmHg 39%
12:00 +35°C° 0 mm 5 mps 719 mmHg 35%
13:00 +35°C° 0 mm 5 mps 719 mmHg 38%
14:00 +34°C° 0 mm 6 mps 718 mmHg 41%
15:00 +34°C° 0 mm 6 mps 718 mmHg 43%
16:00 +33°C° 0 mm 5 mps 718 mmHg 45%
17:00 +32°C° 0 mm 4 mps 718 mmHg 46%
18:00 +31°C° 0 mm 3 mps 718 mmHg 47%
19:00 +30°C° 0 mm 2 mps 719 mmHg 50%
20:00 +29°C° 0 mm 2 mps 719 mmHg 52%
21:00 +28°C° 0 mm 1 mps 719 mmHg 55%
22:00 +28°C° 0 mm 1 mps 719 mmHg 58%
23:00 +27°C° 0 mm 1 mps 719 mmHg 61%
Show more